EW2142 Weather Reports


Display with metric or nautical units.
time (UTC)temp
F
wind
direction
speed
MPH
gust
MPH
rain 1hr
in
rain 24hr
in
rain mn
in
humidity
%
barometer
mb
20260503055024 50 0 0.0 1.0 0.00 0.00 0.00 1 1008.6
20260503054503 50 0 0.0 1.0 0.00 0.00 0.00 1 1008.7
20260503054003 50 286 0.0 1.0 0.00 0.00 0.00 1 1008.6
20260503053503 50 316 0.0 1.0 0.00 0.00 0.00 1 1008.6
20260503053003 50 322 0.0 1.0 0.00 0.00 0.00 1 1008.5
20260503052503 50 143 0.0 1.0 0.00 0.00 0.00 1 1008.6
20260503052002 50 149 0.0 1.0 0.00 0.00 0.00 1 1008.6
20260503051503 50 310 0.0 2.0 0.00 0.00 0.00 1 1008.6
20260503051003 50 311 0.0 2.0 0.00 0.00 0.00 1 1008.6
20260503050503 50 315 0.0 2.0 0.00 0.00 0.00 1 1008.5
20260503050003 50 314 0.0 2.0 0.00 0.00 0.00 1 1008.5
20260503045503 50 237 0.0 1.0 0.00 0.00 0.00 1 1008.4
20260503045024 50 191 0.0 1.0 0.00 0.00 0.00 1 1008.5
20260503044503 50 308 0.0 1.0 0.00 0.00 0.00 1 1008.4
20260503044003 50 310 0.0 2.0 0.00 0.00 0.00 1 1008.5
20260503043503 50 313 0.0 2.0 0.00 0.00 0.00 1 1008.5
20260503043003 50 313 0.0 2.0 0.00 0.00 0.00 1 1008.5
20260503042503 50 280 0.0 1.0 0.00 0.00 0.00 1 1008.5
20260503042002 50 151 0.0 1.0 0.00 0.00 0.00 1 1008.5
20260503041523 50 262 0.0 2.0 0.00 0.00 0.00 1 1008.4
20260503041003 51 290 0.0 2.0 0.00 0.00 0.00 3 1008.4
20260503040503 51 162 0.0 1.0 0.00 0.00 0.00 6 1008.5
20260503040003 51 0 0.0 0.0 0.00 0.00 0.00 6 1008.5
20260503035503 51 317 0.0 2.0 0.00 0.00 0.00 6 1008.5
20260503035024 51 295 0.0 2.0 0.00 0.00 0.00 8 1008.5
20260503034503 51 187 0.0 2.0 0.00 0.00 0.00 9 1008.5
20260503034003 51 153 0.0 3.0 0.00 0.00 0.00 10 1008.5
20260503033503 51 156 0.0 3.0 0.00 0.00 0.00 11 1008.5
20260503033003 51 152 0.0 2.0 0.00 0.00 0.00 12 1008.5
20260503032503 52 160 0.0 2.0 0.00 0.00 0.00 11 1008.5
20260503032024 52 183 0.0 1.0 0.00 0.00 0.00 13 1008.4
20260503031502 52 286 0.0 1.0 0.00 0.00 0.00 14 1008.4
20260503031024 52 310 0.0 1.0 0.00 0.00 0.00 16 1008.4
20260503030503 52 274 0.0 2.0 0.00 0.00 0.00 20 1008.5
20260503030003 52 283 0.0 3.0 0.00 0.00 0.00 24 1008.5
20260503025503 52 314 0.0 3.0 0.00 0.00 0.00 27 1008.5
20260503025003 53 131 0.0 2.0 0.00 0.00 0.00 30 1008.5
20260503024524 53 319 0.0 1.0 0.00 0.00 0.00 34 1008.6
20260503024003 53 339 0.0 1.0 0.00 0.00 0.00 35 1008.6
20260503023503 53 163 0.0 1.0 0.00 0.00 0.00 36 1008.6
20260503023003 53 298 0.0 2.0 0.00 0.00 0.00 38 1008.6
20260503022502 53 304 0.0 2.0 0.00 0.00 0.00 39 1008.5
20260503022023 53 274 0.0 1.0 0.00 0.00 0.00 40 1008.5
20260503021503 53 281 0.0 2.0 0.00 0.00 0.00 40 1008.4
20260503021003 53 253 0.0 1.0 0.00 0.00 0.00 41 1008.4
20260503020502 54 245 0.0 1.0 0.00 0.00 0.00 43 1008.4
20260503020003 54 0 0.0 0.0 0.00 0.00 0.00 43 1008.4
20260503015503 54 312 0.0 1.0 0.00 0.00 0.00 44 1008.5
20260503015003 54 312 0.0 1.0 0.00 0.00 0.00 44 1008.5
20260503014503 54 0 0.0 0.0 0.00 0.00 0.00 44 1008.4
20260503014003 54 0 0.0 0.0 0.00 0.00 0.00 44 1008.4
20260503013503 54 0 0.0 0.0 0.00 0.00 0.00 44 1008.5
20260503013003 54 0 0.0 0.0 0.00 0.00 0.00 44 1008.5
20260503012503 54 0 0.0 0.0 0.00 0.00 0.00 44 1008.5
20260503012023 54 0 0.0 0.0 0.00 0.00 0.00 45 1008.6
20260503011502 54 0 0.0 0.0 0.00 0.00 0.00 46 1008.6
20260503011003 54 219 0.0 1.0 0.00 0.00 0.00 45 1008.6
20260503010503 54 219 0.0 1.0 0.00 0.00 0.00 45 1008.6
20260503010024 54 219 0.0 1.0 0.00 0.00 0.00 44 1008.6
20260503005524 54 236 0.0 1.0 0.00 0.00 0.00 45 1008.6
20260503005003 54 236 0.0 1.0 0.00 0.00 0.00 46 1008.7
20260503004503 54 0 0.0 0.0 0.00 0.00 0.00 47 1008.7
20260503004003 54 0 0.0 0.0 0.00 0.00 0.00 48 1008.7
20260503003503 54 0 0.0 0.0 0.00 0.00 0.00 48 1008.7
20260503003024 54 237 0.0 1.0 0.00 0.00 0.00 49 1008.8
20260503002503 54 237 0.0 1.0 0.00 0.00 0.00 51 1008.8
20260503002002 54 0 0.0 0.0 0.00 0.00 0.00 53 1008.9
20260503001524 54 0 0.0 0.0 0.00 0.00 0.00 54 1008.9
20260503001003 54 0 0.0 0.0 0.00 0.00 0.00 56 1008.9
20260503000503 54 0 0.0 0.0 0.00 0.00 0.00 58 1008.9
20260503000003 54 0 0.0 0.0 0.00 0.00 0.00 59 1008.9
20260502235503 54 0 0.0 0.0 0.00 0.00 0.00 60 1008.8
20260502235003 54 0 0.0 0.0 0.00 0.00 0.00 61 1008.8
20260502234503 54 0 0.0 0.0 0.00 0.00 0.00 62 1008.9
20260502234024 54 0 0.0 0.0 0.00 0.00 0.00 62 1009.0
20260502233503 54 0 0.0 0.0 0.00 0.00 0.00 62 1009.1
20260502233024 54 0 0.0 0.0 0.00 0.00 0.00 63 1009.0
20260502232524 54 0 0.0 0.0 0.00 0.00 0.00 64 1009.0
20260502232024 54 0 0.0 0.0 0.00 0.00 0.00 64 1009.1
20260502231503 54 0 0.0 0.0 0.00 0.00 0.00 64 1009.2
20260502231002 54 0 0.0 0.0 0.00 0.00 0.00 64 1009.2
20260502230502 54 0 0.0 0.0 0.00 0.00 0.00 64 1009.1
20260502230003 54 0 0.0 0.0 0.00 0.00 0.00 64 1009.1
20260502225503 54 0 0.0 0.0 0.00 0.00 0.00 64 1009.2
20260502225003 54 0 0.0 0.0 0.00 0.00 0.00 64 1009.2
20260502224524 54 0 0.0 0.0 0.00 0.00 0.00 64 1009.2
20260502224024 54 0 0.0 0.0 0.00 0.00 0.00 64 1009.2
20260502223503 54 0 0.0 0.0 0.00 0.00 0.00 64 1009.2
20260502223003 54 0 0.0 0.0 0.00 0.00 0.00 64 1009.2
20260502222524 54 0 0.0 0.0 0.00 0.00 0.00 64 1009.2
20260502222002 54 0 0.0 0.0 0.00 0.00 0.00 64 1009.2
20260502221503 54 0 0.0 0.0 0.00 0.00 0.00 64 1009.2
20260502221003 54 0 0.0 0.0 0.00 0.00 0.00 64 1009.2
20260502220503 54 0 0.0 0.0 0.00 0.00 0.00 64 1009.2
20260502220005 54 0 0.0 0.0 0.00 0.00 0.00 64 1009.3
20260502215502 54 0 0.0 0.0 0.00 0.00 0.00 64 1009.4
20260502215003 54 0 0.0 0.0 0.00 0.00 0.00 64 1009.4
20260502214503 54 0 0.0 0.0 0.00 0.00 0.00 64 1009.5
20260502214003 54 0 0.0 0.0 0.00 0.00 0.00 65 1009.6
20260502213503 54 0 0.0 0.0 0.00 0.00 0.00 65 1009.7
20260502213024 54 0 0.0 0.0 0.00 0.00 0.00 66 1009.7
20260502212503 54 0 0.0 0.0 0.00 0.00 0.00 66 1009.7
20260502212003 54 0 0.0 0.0 0.00 0.00 0.00 66 1009.9
20260502211503 54 0 0.0 0.0 0.00 0.00 0.00 66 1009.8
20260502211003 54 0 0.0 0.0 0.00 0.00 0.00 67 1009.9
20260502210503 54 0 0.0 0.0 0.00 0.00 0.00 67 1009.8
20260502210003 54 0 0.0 0.0 0.00 0.00 0.00 67 1009.9
20260502205503 54 0 0.0 0.0 0.00 0.00 0.00 68 1009.9
20260502205003 54 0 0.0 0.0 0.00 0.00 0.00 68 1009.9
20260502204503 55 0 0.0 0.0 0.00 0.00 0.00 68 1009.9
20260502204003 55 0 0.0 0.0 0.00 0.00 0.00 68 1010.0
20260502203503 55 0 0.0 0.0 0.00 0.00 0.00 68 1010.0
20260502203003 55 0 0.0 0.0 0.00 0.00 0.00 68 1009.9
20260502202503 55 0 0.0 0.0 0.00 0.00 0.00 68 1010.0
20260502202002 55 0 0.0 0.0 0.00 0.00 0.00 68 1010.2
20260502201503 55 0 0.0 0.0 0.00 0.00 0.00 68 1010.2
20260502201023 55 0 0.0 0.0 0.00 0.00 0.00 68 1010.2
20260502200524 55 0 0.0 0.0 0.00 0.00 0.00 68 1010.3
20260502200024 55 0 0.0 0.0 0.00 0.00 0.00 68 1010.4
20260502195503 56 0 0.0 0.0 0.00 0.00 0.00 68 1010.3
20260502195003 56 316 0.0 1.0 0.00 0.00 0.00 69 1010.3
20260502194524 56 302 0.0 1.0 0.00 0.00 0.00 69 1010.4
20260502194024 56 319 0.0 3.0 0.00 0.00 0.00 69 1010.4
20260502193503 56 314 0.0 3.0 0.00 0.00 0.00 68 1010.4
20260502193003 56 296 0.0 2.0 0.00 0.00 0.00 68 1010.4
20260502192524 56 321 0.0 2.0 0.00 0.00 0.00 68 1010.3
20260502192023 56 305 0.0 3.0 0.00 0.00 0.00 68 1010.3
20260502191503 57 301 0.0 3.0 0.00 0.00 0.00 68 1010.3
20260502191003 57 141 0.0 2.0 0.00 0.00 0.00 68 1010.3
20260502190503 58 319 0.0 3.0 0.00 0.00 0.00 68 1010.3
20260502190003 58 321 0.0 3.0 0.00 0.00 0.00 68 1010.2
20260502185503 58 281 0.0 1.0 0.00 0.00 0.00 68 1010.2
20260502185002 59 215 0.0 1.0 0.00 0.00 0.00 68 1010.2
20260502184503 59 239 0.0 1.0 0.00 0.00 0.00 68 1010.1
20260502184003 59 274 0.0 1.0 0.00 0.00 0.00 68 1010.1
20260502183503 60 311 0.0 1.0 0.00 0.00 0.00 68 1010.0
20260502183003 60 325 0.0 1.0 0.00 0.00 0.00 68 1010.1
20260502182503 60 333 0.0 1.0 0.00 0.00 0.00 67 1010.0
20260502182003 60 352 0.0 1.0 0.00 0.00 0.00 67 1010.0
20260502181502 60 1 0.0 1.0 0.00 0.00 0.00 67 1010.0
20260502181003 60 346 0.0 1.0 0.00 0.00 0.00 67 1010.1
20260502180502 61 326 0.0 1.0 0.00 0.00 0.00 67 1009.9
20260502170502 65 308 1.0 3.0 0.00 0.00 0.00 56 1010.2
20260502164003 70 263 0.0 4.0 0.00 0.00 0.00 47 1010.2
20260502163503 70 257 0.0 4.0 0.00 0.00 0.00 47 1010.1
20260502163003 70 252 0.0 3.0 0.00 0.00 0.00 47 1010.1
20260502162524 70 293 0.0 3.0 0.00 0.00 0.00 48 1010.2
20260502162024 70 265 0.0 3.0 0.00 0.00 0.00 49 1010.2
20260502161502 70 254 1.0 4.0 0.00 0.00 0.00 47 1010.2
20260502161003 70 244 1.0 6.0 0.00 0.00 0.00 47 1010.3
20260502160524 70 287 1.0 8.0 0.00 0.00 0.00 46 1010.3
20260502151502 74 250 1.0 4.0 0.00 0.00 0.00 42 1010.8
20260502151003 74 255 1.0 4.0 0.00 0.00 0.00 42 1010.8
20260502150503 73 247 1.0 4.0 0.00 0.00 0.00 44 1010.9
20260502130503 73 292 1.0 3.0 0.00 0.00 0.00 45 1012.3
20260502123503 72 241 1.0 4.0 0.00 0.00 0.00 48 1012.8
20260502123003 71 236 1.0 4.0 0.00 0.00 0.00 50 1012.8
20260502122503 71 232 1.0 4.0 0.00 0.00 0.00 48 1012.9
20260502122003 71 273 1.0 5.0 0.00 0.00 0.00 48 1013.0
20260502121503 71 269 1.0 5.0 0.00 0.00 0.00 49 1013.0
20260502121003 70 279 1.0 5.0 0.00 0.00 0.00 48 1013.1
20260502120502 70 292 1.0 5.0 0.00 0.00 0.00 50 1013.2
20260502115503 70 204 1.0 6.0 0.00 0.00 0.00 50 1013.3
20260502115002 69 214 1.0 6.0 0.00 0.00 0.00 49 1013.4
20260502114003 70 245 1.0 5.0 0.00 0.00 0.00 50 1013.4
20260502113524 70 230 1.0 6.0 0.00 0.00 0.00 50 1013.4
20260502113003 70 227 1.0 6.0 0.00 0.00 0.00 50 1013.5
20260502112503 70 248 1.0 5.0 0.00 0.00 0.00 49 1013.4
20260502112003 71 269 0.0 3.0 0.00 0.00 0.00 50 1013.4
20260502111524 70 273 0.0 4.0 0.00 0.00 0.00 51 1013.5
20260502111002 70 264 0.0 4.0 0.00 0.00 0.00 51 1013.4
20260502110503 69 275 1.0 5.0 0.00 0.00 0.00 51 1013.5
20260502110003 69 276 1.0 5.0 0.00 0.00 0.00 53 1013.5
20260502105502 69 242 0.0 3.0 0.00 0.00 0.00 52 1013.6
20260502105003 69 229 1.0 3.0 0.00 0.00 0.00 52 1013.6
20260502104503 69 249 1.0 2.0 0.00 0.00 0.00 52 1013.6
20260502104024 69 264 0.0 5.0 0.00 0.00 0.00 53 1013.7
20260502103524 69 187 0.0 5.0 0.00 0.00 0.00 53 1013.8
20260502103024 68 273 1.0 5.0 0.00 0.00 0.00 53 1013.8
20260502102524 68 277 1.0 5.0 0.00 0.00 0.00 53 1013.9
20260502102003 69 195 0.0 4.0 0.00 0.00 0.00 52 1013.9
20260502101503 68 259 0.0 2.0 0.00 0.00 0.00 53 1014.0
20260502101023 68 244 0.0 3.0 0.00 0.00 0.00 55 1014.1
20260502100503 67 248 1.0 4.0 0.00 0.00 0.00 55 1014.0
20260502091503 66 252 0.0 2.0 0.00 0.00 0.00 57 1014.6
20260502091023 66 270 0.0 2.0 0.00 0.00 0.00 57 1014.6
20260502090503 66 288 0.0 3.0 0.00 0.00 0.00 58 1014.6
20260502071503 62 250 0.0 1.0 0.00 0.00 0.00 60 1015.0
20260502071003 62 291 0.0 2.0 0.00 0.00 0.00 61 1015.0
20260502070524 61 294 0.0 2.0 0.00 0.00 0.00 62 1015.0
20260502070002 60 292 0.0 3.0 0.00 0.00 0.00 63 1015.1
20260502065503 60 299 0.0 5.0 0.00 0.00 0.00 63 1015.1
20260502065003 60 291 0.0 5.0 0.00 0.00 0.00 63 1015.2
20260502064503 59 146 0.0 2.0 0.00 0.00 0.00 64 1015.3